GFSCGP_sfc_thetae_000.txt.gz
Theta_e
301 295 291 293 295 296 296 292 291 291 296 295 294 294 296 301 305 304 305 307 307 306 308 311 311 311 311 311 311 312 313 314 309 308 307 309 306 306 306 306 308 308 309 308
296 292 297 299 300 298 297 294 293 295 298 295 294 293 297 302 302 304 305 305 305 306 307 308 308 309 308 308 309 310 308 308 308 309 309 308 305 305 306 309 309 307 307 306
293 296 301 300 297 296 296 294 293 293 295 294 296 292 296 299 300 302 302 304 306 306 305 307 307 305 304 304 305 305 305 305 307 308 305 305 306 306 305 304 303 305 303 303
296 301 300 298 296 296 293 298 297 295 291 286 292 284 292 296 298 300 302 303 305 305 307 306 305 304 304 303 303 304 304 304 305 305 303 304 303 301 302 302 300 299 300 301
296 297 297 296 296 298 296 299 296 295 291 289 290 287 290 296 294 296 298 301 302 304 304 304 304 305 304 303 303 303 304 304 304 304 303 302 300 299 299 299 297 297 298 299
298 301 298 297 300 300 300 298 297 295 292 283 291 289 288 292 295 298 299 300 302 302 303 304 305 305 304 303 302 301 302 303 303 302 302 302 299 297 297 295 294 295 296 297
297 297 299 301 297 300 297 293 286 284 281 281 294 290 291 297 299 300 300 300 301 301 302 303 304 303 303 303 303 303 303 304 303 302 300 299 297 296 294 294 295 295 296 296
291 288 296 300 296 293 294 292 284 280 278 285 291 286 289 298 302 303 303 301 302 302 302 302 302 302 302 303 303 302 300 298 299 298 297 297 298 299 298 298 294 296 295 295
291 291 298 298 298 298 295 288 293 287 284 282 286 290 295 299 298 300 301 302 300 299 299 301 301 302 302 302 301 302 300 298 297 298 298 299 300 300 299 299 296 297 294 296
295 289 295 298 301 300 294 296 288 285 278 277 283 286 288 293 295 296 296 296 298 299 299 300 300 300 300 301 302 303 301 298 297 297 299 301 300 299 297 295 294 293 293 294
297 292 291 297 294 292 294 292 292 290 284 278 275 282 293 295 296 295 296 297 297 298 298 299 299 299 298 298 298 298 297 299 297 297 297 296 296 296 295 293 293 293 293 294
296 290 282 291 296 297 294 293 291 281 284 281 278 282 295 295 297 298 298 298 299 299 299 298 297 297 296 295 295 294 295 296 296 296 297 296 296 295 293 292 291 292 291 291
295 288 281 287 294 295 293 294 295 290 283 282 276 280 297 297 297 298 296 297 297 297 297 296 296 295 294 293 292 291 291 290 291 292 294 295 296 296 292 290 291 291 289 290
300 293 286 283 287 289 286 290 293 290 280 282 282 287 292 294 294 296 296 296 295 295 295 295 294 293 291 290 289 289 290 290 290 289 290 289 291 293 290 289 290 291 292 292
296 287 289 290 292 291 290 289 289 288 288 283 287 288 292 294 294 295 296 296 295 294 295 295 293 291 288 288 288 289 289 289 290 289 288 290 292 291 291 292 291 292 291 292
295 285 284 284 292 291 287 289 290 290 290 289 291 289 295 295 296 295 294 294 294 294 294 293 292 289 289 289 287 288 288 288 289 288 290 292 292 292 291 290 291 290 290 286
288 283 281 281 285 285 280 287 291 291 292 290 284 291 294 293 294 292 292 293 292 292 293 292 289 288 288 287 287 286 287 288 288 288 290 291 291 291 290 291 290 290 286 285
286 285 280 276 277 272 290 295 294 293 294 294 293 293 293 294 293 293 293 292 292 292 292 290 287 287 287 286 286 287 287 287 287 289 289 290 289 289 289 290 289 288 286 284
292 281 279 275 276 281 288 293 291 289 290 295 293 293 294 294 292 290 294 293 292 291 290 288 287 287 286 286 286 286 286 286 286 288 288 289 288 288 288 289 288 288 284 280
292 284 280 280 272 270 284 294 297 295 284 296 295 293 293 292 281 287 294 294 292 289 289 288 287 286 285 286 286 286 285 285 286 288 289 289 289 288 288 287 286 284 281 282
280 277 277 276 271 280 289 295 297 282 284 296 295 293 292 289 288 292 294 294 290 289 288 288 287 285 286 286 286 286 285 285 287 288 288 288 288 288 287 286 283 281 281 281
282 279 276 276 273 276 294 295 287 291 294 295 295 294 293 293 294 294 294 289 289 287 286 287 286 286 286 287 287 285 284 286 287 287 286 286 285 286 285 283 281 281 280 278
284 286 283 285 285 292 295 295 296 298 295 295 294 295 296 294 294 292 289 287 286 285 285 286 285 285 286 287 286 285 285 286 286 285 284 284 284 284 283 281 279 278 277 274
292 296 286 288 294 295 297 299 300 299 297 297 297 296 297 294 291 287 286 285 284 284 284 285 285 284 285 286 286 286 286 286 285 284 283 283 282 282 282 280 280 278 273 272
290 295 291 289 293 295 298 298 299 298 298 298 299 298 297 291 286 286 285 284 284 284 285 285 284 284 285 286 286 286 286 285 283 284 283 282 280 280 280 279 279 278 278 277
295 292 287 288 295 295 295 298 299 297 297 299 298 290 289 287 285 285 284 285 284 284 284 284 285 285 285 285 285 286 285 284 284 283 282 280 278 277 280 281 281 282 282 281

GFSCGP_sfc_thetae_003.txt.gz
Theta_e
298 294 289 290 292 293 292 289 289 289 294 294 292 294 297 300 303 302 302 302 302 303 305 307 308 309 309 310 311 313 313 312 312 310 309 308 306 306 306 306 306 305 304 304
295 290 294 298 298 296 294 291 290 293 296 295 295 293 296 299 299 302 302 301 302 303 304 306 306 306 306 307 308 309 309 307 308 308 307 309 307 306 308 307 304 303 302 301
292 294 299 298 296 295 294 291 291 291 295 296 295 292 293 297 299 301 302 302 302 303 303 305 304 301 301 302 303 304 304 305 306 309 308 304 303 303 301 300 300 299 301 300
295 300 298 296 294 294 291 296 295 293 291 287 291 283 290 294 296 299 300 301 302 304 303 303 302 300 300 300 301 301 302 302 303 303 302 302 301 300 299 298 296 296 299 298
294 295 296 295 294 297 295 297 294 294 288 288 288 285 288 294 293 296 298 301 303 301 302 302 302 302 301 301 300 301 302 303 302 302 302 301 299 296 297 295 294 295 296 297
296 298 297 295 298 297 298 296 295 293 290 282 289 287 286 290 293 296 298 301 302 301 301 302 303 303 302 300 299 299 300 301 302 301 300 299 296 295 293 293 293 293 295 296
294 295 297 298 295 297 295 292 284 283 280 280 291 288 288 295 297 298 298 299 299 301 302 304 303 300 300 299 299 301 300 299 298 297 296 296 295 293 293 294 293 295 296 296
289 286 294 297 294 291 292 291 284 279 277 282 290 284 289 296 299 300 300 300 299 303 301 298 298 298 298 299 297 296 296 296 296 296 296 296 296 296 296 298 297 295 293 293
289 289 296 296 296 296 292 286 291 284 283 281 284 288 293 296 297 298 299 299 296 296 297 298 298 298 298 298 298 296 295 295 295 296 296 297 298 298 296 296 294 292 292 294
294 287 293 296 298 297 293 295 286 283 277 276 282 284 285 291 294 295 294 295 295 296 297 297 297 296 296 296 296 297 296 295 295 295 295 297 295 295 295 294 293 292 292 295
295 289 289 295 292 290 292 290 289 288 282 277 275 282 290 293 294 293 294 295 295 295 295 296 296 296 295 294 293 293 293 292 291 292 293 293 293 294 293 292 292 292 292 292
294 289 282 289 295 296 292 290 288 279 282 279 277 281 292 294 295 295 295 295 295 295 295 295 295 295 294 291 289 289 289 288 289 290 291 291 291 291 291 291 290 291 291 289
294 287 281 287 292 293 290 292 291 287 282 282 275 279 294 294 294 295 294 295 294 294 294 294 293 293 290 289 290 288 288 287 287 287 287 287 288 289 289 288 288 289 290 291
298 290 285 282 286 288 285 289 290 288 279 281 280 284 290 291 292 293 293 293 293 293 294 293 292 291 290 289 288 287 287 287 287 286 287 288 289 289 287 287 288 289 290 289
294 286 287 288 289 289 288 288 289 288 287 283 285 286 290 292 292 293 293 293 293 292 293 293 290 289 288 287 287 286 287 287 288 287 287 288 289 289 289 288 288 288 289 289
292 285 283 284 289 289 285 287 287 288 288 288 288 287 292 293 294 292 293 292 291 292 293 293 291 288 287 286 286 287 286 287 288 286 288 289 289 289 289 289 288 291 289 288
286 282 280 278 283 283 278 285 289 288 290 289 284 290 292 292 293 291 291 291 291 292 292 291 288 286 286 286 286 285 286 287 287 286 288 289 289 288 288 288 289 287 286 282
285 282 277 276 276 272 285 291 292 290 291 291 291 292 293 293 293 292 292 291 291 290 291 290 286 285 285 285 285 285 285 285 286 286 288 288 288 287 287 287 287 286 288 286
290 281 279 274 275 280 285 291 291 289 289 293 291 291 292 292 290 289 292 292 291 291 290 288 285 284 284 284 285 284 284 284 285 285 287 287 287 287 286 286 286 285 284 280
288 282 279 277 271 270 282 292 295 293 283 295 293 291 291 290 281 288 292 292 292 291 287 286 285 284 284 284 284 284 284 284 284 285 286 287 287 286 286 285 284 284 279 281
280 275 274 271 270 279 287 293 295 283 284 295 294 293 291 289 289 291 293 293 290 286 285 286 285 284 284 285 286 285 284 284 285 286 286 286 286 285 284 284 282 280 280 279
283 279 277 278 272 277 292 293 287 291 292 295 294 294 293 292 292 294 294 287 285 285 284 284 284 284 285 285 285 284 283 285 285 285 285 284 284 283 283 280 279 279 278 277
282 284 282 284 284 291 293 294 295 295 295 294 294 295 295 293 293 293 285 284 284 284 283 284 283 284 285 285 284 283 284 285 285 284 283 283 282 282 281 279 278 277 276 273
290 293 285 287 292 292 294 296 298 297 296 296 296 296 295 294 292 286 284 285 283 283 282 283 283 282 283 284 285 285 285 285 283 283 283 283 282 282 280 279 279 277 273 273
289 293 289 288 292 294 296 298 298 298 297 297 297 297 296 291 285 285 285 284 283 283 283 283 282 282 283 284 284 284 284 284 282 282 284 282 281 280 278 278 278 278 278 277
293 291 286 285 293 294 293 297 299 297 296 297 296 292 288 287 285 285 283 284 283 283 283 282 282 283 283 284 283 283 283 283 283 284 283 282 283 280 279 280 279 282 282 282

GFSCGP_sfc_thetae_006.txt.gz
Theta_e
297 293 288 289 291 291 290 288 286 287 293 294 292 292 295 299 299 298 299 300 300 302 305 307 308 310 311 312 312 314 314 314 312 309 308 307 306 308 310 304 303 303 303 301
294 290 293 296 296 294 292 289 288 291 295 294 293 291 293 296 297 298 299 299 300 301 303 305 304 305 307 309 311 311 310 308 309 307 306 309 309 306 302 301 299 300 299 299
291 293 297 296 295 294 292 289 289 290 295 294 293 291 292 296 299 301 301 300 301 301 302 302 301 300 301 303 303 304 304 304 305 307 306 302 302 302 299 298 296 297 298 298
294 297 296 294 293 293 289 294 293 292 290 286 290 283 289 293 295 298 299 299 300 301 301 300 299 299 299 298 299 300 302 302 302 302 301 300 299 297 297 295 294 295 297 297
293 294 294 293 293 295 293 295 293 290 287 287 287 285 286 293 293 295 297 299 299 299 299 301 300 300 299 300 299 299 301 301 301 300 300 299 295 296 295 293 294 294 295 296
294 297 295 294 296 295 297 295 293 291 288 281 286 285 284 289 293 295 297 300 300 299 298 300 301 302 300 299 298 298 299 298 299 298 297 296 295 294 293 293 294 294 294 294
293 293 295 296 293 295 294 290 283 282 279 280 289 286 287 293 295 298 298 298 299 299 298 300 300 299 296 296 296 298 296 295 296 296 296 295 295 293 294 294 293 293 294 294
287 284 292 296 293 291 289 290 283 279 276 281 288 284 288 295 297 299 299 299 298 299 299 297 296 296 297 296 295 294 294 294 295 295 294 295 294 294 295 295 294 294 292 292
287 287 293 294 295 294 290 285 290 284 282 280 283 287 292 295 295 297 297 297 297 295 295 296 296 296 295 296 295 294 294 294 294 294 294 294 294 293 293 293 293 292 292 293
293 286 291 294 296 296 292 293 284 282 277 275 280 283 285 290 293 295 294 294 294 295 295 295 294 294 294 293 294 294 292 290 290 290 291 291 290 290 290 290 290 291 291 292
292 289 288 292 290 288 290 288 287 286 281 276 273 281 289 292 295 293 293 294 294 294 293 293 292 292 291 292 292 291 289 288 288 288 289 289 289 289 289 289 289 289 290 291
292 288 282 287 293 294 291 288 286 278 280 278 275 280 290 291 294 294 293 294 293 293 293 293 292 292 291 289 290 288 288 288 288 287 288 288 288 288 288 288 288 288 288 288
293 286 281 285 289 291 289 290 288 285 282 281 275 279 292 293 292 293 292 292 293 293 292 292 291 290 289 289 288 289 289 287 286 286 285 287 287 287 287 286 286 287 287 287
296 288 284 281 284 286 285 289 288 286 278 280 280 282 289 290 290 291 292 292 291 291 292 291 290 289 287 288 289 288 287 287 286 285 285 286 287 287 287 287 286 286 287 288
292 285 285 286 288 287 286 286 288 286 285 282 284 284 287 291 290 292 292 292 291 291 291 291 289 286 288 288 287 286 286 286 286 286 285 286 287 287 287 287 287 287 287 290
290 283 283 284 287 287 285 286 286 287 286 286 285 286 292 292 292 291 292 291 291 291 292 292 290 289 288 287 286 285 285 286 286 286 285 287 288 288 287 287 287 287 290 288
284 282 280 277 282 281 278 284 286 286 287 287 284 288 291 290 292 292 291 291 291 291 292 292 291 289 287 286 285 285 285 285 285 285 286 287 287 287 286 286 286 286 285 284
282 280 277 275 276 271 284 288 289 288 290 291 289 290 292 292 292 293 292 292 291 291 291 291 290 286 285 284 284 284 284 284 284 284 285 286 286 285 285 285 285 285 285 284
287 280 277 275 274 280 284 290 289 288 287 292 291 290 291 291 291 291 293 292 292 291 290 290 288 284 283 283 284 283 283 283 284 284 284 285 285 285 285 284 284 284 284 282
287 281 279 272 271 271 283 288 293 291 283 293 292 290 290 290 283 291 292 292 291 291 289 286 284 284 283 283 283 283 283 283 283 284 284 285 285 284 284 283 283 282 280 280
280 278 273 270 270 278 286 292 293 283 284 293 293 292 290 288 291 291 291 291 290 287 285 285 285 284 283 284 284 283 283 283 284 284 284 284 284 283 283 282 281 279 279 278
283 278 276 275 270 276 290 291 287 291 289 293 293 292 292 291 290 291 292 287 285 285 285 284 284 284 284 284 283 282 282 284 284 284 283 283 283 283 283 280 278 279 277 276
283 284 281 282 282 289 291 291 293 293 292 293 294 294 295 292 292 293 286 286 284 284 284 284 284 284 284 283 283 282 283 283 283 283 283 283 282 282 282 279 278 277 276 273
289 290 283 285 290 291 292 294 296 296 295 295 295 295 294 293 293 288 284 284 284 283 284 283 283 282 282 283 283 283 283 283 282 283 282 282 281 282 282 280 279 278 273 272
288 291 288 286 291 291 294 296 296 297 297 296 296 296 295 293 287 286 285 285 284 284 284 283 282 282 282 283 283 283 282 282 282 283 283 282 280 281 281 279 279 278 277 276
291 289 285 285 292 292 292 295 296 296 297 296 295 293 289 289 286 286 285 285 284 283 283 283 282 282 282 282 282 282 282 282 281 283 283 282 283 284 281 280 280 282 282 282

GFSCGP_sfc_thetae_012.txt.gz
Theta_e
305 301 298 300 301 300 299 298 297 300 304 303 302 302 304 310 314 314 315 317 318 318 320 324 326 330 331 332 332 333 331 331 330 327 323 319 319 320 318 316 315 314 314 313
301 298 302 304 302 301 299 298 298 300 303 304 303 303 305 307 310 314 315 316 317 318 320 322 327 329 330 331 331 331 330 330 328 325 323 323 322 320 315 315 313 312 311 311
300 302 304 303 301 300 300 299 299 298 302 304 304 301 303 306 308 310 313 315 317 318 319 322 324 326 327 327 327 325 324 323 322 322 321 320 319 316 314 313 313 311 311 311
303 304 303 303 300 301 298 301 301 300 299 295 303 293 302 305 306 309 311 314 316 318 319 318 318 320 319 320 322 321 320 318 317 316 317 316 315 314 312 313 312 311 311 311
300 301 302 301 301 303 300 303 303 301 300 299 298 296 301 305 303 307 310 313 314 315 314 313 314 314 314 316 316 316 315 314 315 316 316 314 312 311 311 311 309 310 311 311
303 306 305 303 304 304 304 303 302 301 300 293 297 297 297 302 305 308 311 311 312 312 311 311 312 312 313 314 315 315 313 312 313 313 312 312 309 308 308 307 305 304 303 303
301 301 304 306 302 304 304 301 293 291 291 291 297 295 298 304 306 310 310 310 311 311 311 310 310 311 311 312 312 311 311 309 310 310 309 308 307 304 302 300 299 298 298 299
296 294 300 303 303 300 302 301 294 285 288 291 296 292 299 304 307 312 312 311 311 311 311 311 311 311 311 310 310 310 309 307 307 305 303 302 300 300 299 299 299 298 298 298
296 294 302 302 304 303 299 297 301 294 293 292 295 298 303 304 305 308 310 309 309 310 311 310 310 309 309 309 310 308 305 303 302 302 300 299 301 300 299 300 300 299 299 298
301 294 300 301 304 303 301 302 295 297 286 284 291 293 295 300 302 306 307 308 309 310 311 310 309 308 309 308 306 305 304 302 301 299 300 300 299 300 300 300 298 298 298 299
303 300 297 301 299 299 298 297 296 297 294 287 285 292 302 302 305 305 307 308 310 310 310 309 308 308 308 306 304 303 302 300 297 300 300 300 300 299 299 299 298 298 298 298
302 301 296 297 301 303 301 299 297 292 289 292 292 291 301 304 305 307 308 309 311 311 310 308 306 306 305 303 302 301 301 300 299 299 299 299 300 299 298 298 297 298 297 298
303 299 293 294 298 300 299 299 298 297 296 290 291 292 301 303 304 306 308 309 309 309 308 306 304 303 302 301 300 300 299 298 299 298 298 299 298 298 297 297 297 297 297 297
302 300 297 293 295 299 296 298 298 297 292 291 293 294 298 300 302 304 306 308 308 307 305 304 302 302 301 300 300 299 299 301 299 297 297 297 297 297 298 297 297 296 296 296
303 297 296 295 295 295 296 297 297 295 296 292 294 294 297 300 302 305 306 306 306 304 303 303 302 302 301 300 301 300 301 300 299 297 296 297 297 298 297 297 296 296 296 296
300 297 295 293 294 294 293 296 298 297 297 296 296 296 303 304 304 304 304 304 303 302 303 303 303 302 300 300 299 300 300 298 298 296 296 297 297 296 296 296 296 295 295 295
299 295 292 290 291 292 290 294 296 297 299 298 294 299 302 301 302 303 304 303 303 303 303 303 303 302 300 299 300 300 298 298 296 295 295 295 295 294 295 295 295 294 294 295
294 294 292 292 287 285 294 297 297 298 298 300 299 300 301 302 304 304 306 305 304 304 304 305 304 302 301 299 300 300 297 295 294 294 294 294 293 293 294 294 294 294 294 294
298 296 289 291 289 292 293 294 294 295 295 301 300 301 301 302 302 304 305 307 307 306 306 306 305 303 300 299 298 296 294 294 293 292 292 292 293 293 293 293 293 294 293 293
295 295 296 289 289 287 294 295 301 300 292 301 302 302 301 301 299 301 307 307 306 307 307 305 303 300 298 296 294 294 294 292 290 291 291 292 292 292 292 292 293 294 293 292
293 292 291 290 290 292 296 298 301 290 293 302 303 304 303 302 305 305 306 307 307 307 305 302 298 296 295 294 294 292 291 289 291 291 292 291 292 292 292 292 293 293 292 290
293 292 291 288 288 287 297 299 295 302 304 303 303 305 305 306 305 303 302 304 305 303 299 297 294 293 291 293 292 290 289 291 291 291 291 291 292 291 291 292 292 292 291 289
292 297 297 295 296 299 301 304 305 304 304 304 305 305 305 305 305 303 301 300 300 298 295 291 290 290 292 291 290 289 290 291 291 291 290 291 291 291 291 291 291 291 290 288
297 298 297 295 298 299 301 303 304 304 304 305 306 305 306 305 306 303 300 297 296 293 290 292 289 290 288 289 290 290 291 291 290 289 290 290 289 288 290 291 291 290 289 288
300 298 297 297 300 301 302 303 304 305 306 306 307 307 306 306 305 303 298 295 293 288 289 290 289 288 288 289 289 290 290 290 288 289 289 289 288 287 287 287 288 289 290 288
299 299 297 297 301 302 302 303 305 305 305 306 306 305 302 303 302 299 294 290 292 290 288 287 287 287 288 288 288 289 289 289 289 287 288 289 289 288 287 286 287 286 284 284

GFSCGP_sfc_thetae_015.txt.gz
Theta_e
307 302 298 301 303 302 301 299 298 301 304 302 301 303 305 312 312 313 315 317 319 321 324 326 329 331 331 334 334 332 331 331 331 330 328 324 321 322 322 320 318 317 316 315
303 298 304 305 303 301 300 298 299 302 304 304 302 302 306 310 311 314 314 315 317 320 322 325 328 331 332 332 333 330 331 331 331 328 325 324 323 322 319 317 317 315 315 314
300 302 305 303 301 299 300 298 300 299 303 305 303 302 305 308 311 314 316 318 318 320 321 324 327 329 330 330 331 331 330 329 327 325 324 324 322 318 316 315 314 314 314 313
301 306 302 301 300 302 298 304 302 300 300 295 304 293 302 307 307 310 313 316 318 320 322 325 326 327 328 328 329 327 325 323 323 322 319 318 318 314 314 314 314 314 313 313
302 303 303 301 302 305 302 305 303 303 301 300 300 296 297 306 304 307 311 314 317 320 322 321 321 321 322 323 322 322 320 317 318 319 319 317 315 314 313 313 310 311 309 307
302 309 306 305 306 306 306 304 303 303 301 294 297 297 297 303 306 309 312 315 317 319 318 317 318 317 317 319 319 318 316 316 317 317 316 314 312 309 308 305 302 302 301 302
302 303 306 307 303 306 305 301 293 291 292 291 299 297 299 304 308 310 312 314 316 317 315 314 313 313 315 316 317 316 315 313 314 313 311 309 306 304 301 301 300 299 299 299
296 295 303 307 305 301 302 301 293 286 288 291 300 293 299 308 309 311 315 315 316 314 313 312 313 314 314 315 315 314 313 311 310 307 305 304 302 300 301 301 300 300 299 299
297 296 305 305 306 305 301 298 303 297 297 293 295 299 305 307 307 309 313 314 313 313 312 313 314 314 315 314 313 314 312 308 306 305 304 302 302 301 301 301 301 299 300 298
302 295 302 304 306 306 304 305 296 296 287 286 292 294 295 302 304 307 311 312 312 313 312 313 314 313 314 313 314 312 309 306 306 303 302 301 301 302 302 302 300 299 299 299
304 300 300 303 301 300 301 299 299 299 297 289 287 293 302 301 305 306 310 312 313 313 313 313 313 313 313 313 311 308 306 306 303 302 301 302 301 301 302 301 300 299 299 299
305 302 298 299 304 306 305 302 301 294 291 294 294 292 304 305 306 308 309 312 314 314 314 314 313 312 311 310 308 306 306 304 303 302 301 302 302 301 300 300 299 299 298 298
306 300 295 296 301 303 299 301 301 299 299 292 291 293 305 305 305 307 309 311 313 314 314 314 312 311 310 308 307 305 305 304 302 301 301 301 300 300 300 299 299 299 298 297
304 302 298 294 297 301 298 299 301 299 294 294 295 296 300 302 303 305 307 310 312 313 314 314 311 309 309 308 306 304 304 304 303 300 300 299 300 300 299 299 299 298 297 297
306 299 300 301 300 299 299 299 299 297 298 295 296 296 299 301 303 305 307 308 309 311 312 312 310 308 308 307 305 304 305 305 302 300 299 299 300 299 299 298 298 297 297 296
306 300 299 297 300 299 297 299 298 299 299 298 298 297 304 305 305 305 306 307 307 309 310 310 309 308 307 305 304 304 304 302 301 299 298 299 298 298 297 297 297 297 296 296
304 301 296 291 296 296 291 297 298 299 301 300 296 301 304 303 303 304 305 307 307 308 309 309 308 308 307 306 304 303 302 302 300 299 298 297 297 296 296 295 295 295 295 296
301 300 297 293 289 284 296 301 300 299 301 302 302 302 303 303 306 307 308 308 308 308 309 309 309 309 309 307 304 303 302 300 298 297 296 296 295 293 294 294 294 295 296 295
303 300 293 292 290 294 295 297 296 296 296 301 301 302 303 305 306 306 309 309 309 309 310 310 311 310 309 305 304 301 299 297 295 295 295 293 293 293 293 293 294 295 295 294
299 300 297 292 289 286 296 299 303 302 293 302 302 301 302 304 300 301 308 308 309 310 311 310 311 310 307 304 302 298 297 297 295 294 292 293 293 293 292 293 294 294 294 293
295 296 293 293 292 295 300 300 303 291 295 303 304 303 303 302 304 308 309 309 310 310 310 311 310 307 305 301 297 298 295 294 292 293 293 292 293 293 293 293 293 293 293 293
295 294 293 295 289 287 301 301 296 304 305 305 305 305 306 307 308 309 308 307 308 308 309 307 304 300 298 298 297 293 291 292 292 292 292 292 293 292 292 292 292 293 293 292
295 300 299 297 298 303 304 303 306 307 305 306 306 307 307 306 306 307 307 306 306 307 304 301 296 294 295 293 291 289 291 292 292 292 291 292 292 292 292 291 291 291 292 291
301 302 299 297 300 301 303 305 306 306 306 307 308 308 308 307 308 308 308 305 303 301 296 296 295 292 289 291 291 291 291 291 291 290 289 290 290 289 289 290 291 291 291 290
303 302 299 299 302 302 304 305 306 307 308 308 309 309 308 307 307 307 305 301 298 295 294 293 290 289 289 290 290 291 291 290 289 289 289 289 290 290 290 290 289 289 291 289
303 299 299 298 304 303 304 306 308 307 307 307 306 306 303 304 304 303 296 296 294 291 291 290 289 290 289 290 290 290 291 290 288 288 288 289 290 290 290 289 288 288 287 287

GFSCGP_sfc_thetae_018.txt.gz
Theta_e
307 301 298 301 303 302 300 298 297 300 304 302 300 301 305 309 311 312 314 316 317 318 322 325 328 330 332 333 333 332 329 329 329 327 326 325 321 321 320 317 317 316 314 314
302 298 303 305 304 302 300 298 297 300 302 301 300 300 303 308 309 312 313 315 317 319 321 324 327 330 332 332 333 331 329 328 330 330 326 322 321 321 317 316 315 314 314 312
299 302 306 303 302 299 299 298 298 298 300 301 301 298 301 306 310 311 313 315 316 318 320 323 326 328 331 328 330 328 329 330 331 325 323 322 319 316 313 313 312 312 312 311
302 306 303 301 299 300 297 303 301 300 298 293 302 291 300 303 305 308 311 313 315 318 321 323 325 327 327 327 330 330 330 327 323 323 321 319 314 311 313 312 312 311 312 309
300 301 301 299 301 304 299 304 302 301 298 298 296 294 298 303 301 306 310 314 316 319 321 322 325 327 327 328 327 325 322 321 320 319 319 316 313 312 311 309 307 305 303 303
302 307 306 304 305 305 306 303 303 301 299 290 295 293 296 298 301 306 309 313 316 318 321 323 324 323 321 322 321 320 316 316 317 316 314 312 308 306 302 301 299 300 300 300
300 301 305 307 301 305 303 298 291 289 289 290 299 295 297 303 306 308 310 312 316 319 319 318 317 316 317 317 316 316 315 313 314 312 310 307 304 303 300 299 300 299 298 297
295 294 302 305 302 299 301 298 293 282 284 291 298 292 297 308 310 309 313 315 317 317 317 315 314 314 314 315 315 314 313 311 311 307 304 304 303 301 301 300 299 298 297 297
294 295 305 306 306 304 298 297 302 295 293 292 293 297 304 306 306 307 312 314 314 315 314 312 313 314 314 314 314 313 312 310 307 305 304 302 302 301 301 301 299 298 297 297
300 292 303 304 305 305 302 304 296 297 287 285 290 293 295 302 303 306 309 312 313 314 313 312 312 313 314 314 313 314 312 307 304 304 303 302 302 303 302 300 298 297 297 297
303 300 299 303 300 297 300 297 298 297 298 291 288 291 301 301 304 306 308 313 313 313 312 312 312 314 314 314 313 313 309 305 304 302 302 301 302 302 301 299 298 297 297 297
304 300 298 298 304 305 303 301 299 296 292 296 294 291 304 304 305 308 308 311 314 314 313 313 313 313 312 312 312 309 306 305 303 302 302 301 302 302 299 299 298 297 296 297
305 299 293 295 301 304 300 300 301 301 300 294 291 293 304 304 303 306 308 310 313 314 313 313 313 311 311 311 310 307 306 305 303 302 301 300 301 299 299 298 298 298 297 296
308 301 296 293 296 301 298 299 299 298 295 294 293 294 299 302 303 304 306 308 310 312 313 313 312 311 311 310 308 307 306 305 303 302 300 299 300 299 298 298 297 297 297 295
305 297 299 299 300 300 300 299 299 297 298 293 296 296 299 301 303 305 307 308 307 308 311 312 313 312 310 310 308 307 305 305 304 303 299 300 300 299 298 298 298 297 296 295
306 300 301 299 300 300 297 299 299 298 298 298 298 297 303 305 305 305 305 306 307 306 309 312 313 312 310 309 308 306 304 304 305 300 299 300 298 298 297 296 297 296 296 295
305 303 298 293 296 295 290 297 298 299 300 299 294 300 304 303 303 305 305 305 307 307 308 310 311 312 310 309 308 305 304 305 302 300 299 299 298 296 296 296 295 294 294 294
303 301 298 294 290 285 295 302 301 299 300 301 300 302 303 304 305 305 307 306 307 309 308 310 310 311 310 310 308 305 304 303 300 298 297 297 297 294 294 294 293 294 294 293
306 302 296 291 290 293 295 298 297 296 296 301 300 301 303 304 304 305 308 309 308 308 308 309 310 311 310 309 308 303 302 300 298 296 296 295 294 293 293 292 292 293 293 292
300 304 300 293 290 286 298 300 303 302 292 301 302 302 302 303 299 302 308 309 309 308 309 309 310 310 309 308 305 301 298 295 295 294 293 293 293 292 291 292 292 292 292 292
295 297 291 293 291 295 300 301 303 291 295 304 304 303 304 302 304 308 310 308 308 309 309 311 309 302 302 299 298 296 295 293 292 293 293 292 292 292 292 292 291 291 290 290
295 294 291 296 288 286 302 300 296 305 308 306 306 306 307 307 307 307 308 308 307 306 308 304 295 294 296 296 295 292 291 292 293 293 292 292 292 292 292 291 290 290 290 288
296 301 300 297 297 306 305 304 307 308 307 306 306 306 307 306 306 307 307 307 305 304 298 296 294 293 292 292 292 291 291 293 293 291 291 290 291 291 291 288 287 287 288 287
302 304 301 301 300 301 304 305 306 306 306 307 308 308 308 307 307 307 307 304 299 297 295 294 292 290 290 291 291 291 291 291 291 289 289 290 289 289 289 288 288 287 285 286
304 302 299 299 302 303 304 306 307 307 308 308 309 307 304 304 305 305 297 295 294 293 292 291 290 290 290 291 291 291 291 291 289 289 289 289 287 288 288 289 288 285 286 285
304 301 301 299 304 304 304 307 307 306 304 304 303 300 299 299 296 295 294 293 291 290 290 290 290 290 290 290 290 291 291 291 289 287 287 287 287 287 288 288 287 288 287 287

GFSCGP_sfc_thetae_024.txt.gz
Theta_e
300 293 290 293 296 299 297 294 290 292 298 296 296 299 304 307 308 308 308 310 309 312 315 319 324 324 323 323 323 324 322 322 321 320 319 316 313 313 311 307 308 307 307 306
296 292 298 302 302 298 297 294 293 295 297 295 294 296 303 305 306 307 307 309 310 311 312 314 317 322 322 323 323 324 323 322 321 320 319 317 313 309 307 306 306 306 306 305
292 297 303 302 300 297 296 294 294 293 293 294 293 290 298 303 305 306 309 311 312 312 312 315 317 321 322 322 323 323 323 322 321 320 318 311 308 306 304 303 303 304 306 302
296 301 300 299 298 298 291 298 297 296 291 286 291 283 293 298 302 305 308 308 309 311 314 317 319 321 322 322 322 323 324 323 322 319 315 313 309 306 303 303 303 300 298 298
295 297 297 297 297 299 295 299 297 296 292 290 291 288 290 296 295 302 306 309 306 310 314 316 320 322 323 322 323 323 322 322 322 315 313 310 304 303 303 300 295 295 295 296
297 300 300 299 302 300 301 298 297 295 291 283 292 288 287 294 297 300 304 309 309 310 313 317 321 324 322 322 322 319 318 313 314 312 308 306 301 298 297 294 293 294 295 294
295 297 300 303 297 299 299 291 284 283 281 281 294 290 291 297 300 300 301 303 307 312 314 317 318 320 320 319 318 316 310 304 303 302 301 300 297 297 295 293 293 293 294 294
290 288 298 303 299 295 295 292 284 280 279 285 293 288 293 300 302 304 303 304 309 311 316 317 315 313 313 312 310 309 307 302 299 298 297 297 296 295 294 295 295 294 294 293
290 291 301 302 303 301 295 290 295 289 289 285 288 293 297 300 300 301 303 305 308 309 312 312 311 310 309 306 306 306 305 302 299 297 296 296 295 296 296 296 295 295 295 295
296 290 298 302 303 301 298 298 289 288 282 280 285 286 290 296 298 301 301 302 307 308 309 310 310 309 308 307 306 305 304 300 298 297 296 297 297 296 296 296 295 295 295 295
299 293 294 300 297 295 294 291 292 292 286 281 279 284 292 297 299 299 301 303 306 308 309 309 310 309 308 307 306 305 302 298 296 296 295 295 296 297 297 296 296 295 294 294
299 295 286 294 300 300 297 294 293 283 284 283 281 285 295 296 298 300 302 304 308 309 308 309 309 308 307 307 306 304 301 299 297 297 296 296 296 297 297 296 295 295 295 294
299 291 283 287 292 297 294 295 296 293 286 284 279 284 296 295 295 299 299 304 308 309 306 307 306 307 307 307 307 304 301 299 297 297 296 295 296 296 296 295 294 293 293 292
301 293 288 283 287 292 290 294 295 292 282 284 284 288 294 294 294 296 298 301 305 308 306 304 305 306 307 308 307 304 300 299 298 297 296 295 296 296 295 293 293 292 292 291
298 290 291 292 295 295 293 293 294 292 291 285 289 290 294 295 295 295 297 298 302 304 304 303 303 305 306 305 304 302 300 300 298 296 295 295 296 296 294 292 292 292 293 292
298 290 290 289 293 293 291 293 293 293 293 292 291 291 295 295 295 296 297 298 297 299 301 304 304 304 304 304 304 304 301 299 298 296 296 296 296 294 294 293 291 291 292 293
294 289 285 284 288 288 283 289 291 293 293 293 287 291 295 294 296 295 296 298 298 299 301 304 304 304 304 304 305 303 301 299 297 297 298 296 295 294 293 291 290 290 291 291
291 288 284 281 281 276 291 295 295 292 292 294 294 293 296 297 297 298 297 297 298 299 300 301 303 304 303 303 304 300 298 297 297 296 294 293 293 291 291 291 291 291 291 290
301 289 284 280 280 286 290 293 291 290 289 294 293 294 296 298 298 297 300 300 298 296 295 293 293 296 298 300 298 297 295 293 291 290 291 292 291 291 291 291 290 291 290 289
295 290 286 281 278 275 287 294 297 295 284 296 296 295 295 294 286 293 299 298 293 292 292 291 292 292 291 291 292 291 290 290 290 291 290 291 292 292 291 291 291 290 289 288
283 282 280 275 276 282 293 297 296 283 284 297 297 297 296 294 295 298 294 292 292 291 290 291 290 289 290 291 292 290 290 289 291 292 293 293 293 292 292 290 290 288 287 285
285 282 278 283 278 279 298 295 288 291 296 297 297 297 297 298 299 295 293 291 290 289 290 290 290 289 291 292 291 290 290 292 293 293 293 293 292 291 290 288 286 286 284 282
286 289 285 287 286 295 296 297 300 298 297 297 298 299 300 298 294 291 290 289 288 289 289 290 290 289 291 292 292 290 291 292 292 292 290 288 288 288 287 285 285 283 282 279
294 298 290 290 294 295 296 299 300 301 300 299 300 300 298 292 291 290 289 289 289 289 289 289 289 288 288 290 289 289 289 288 287 286 286 286 285 285 285 285 284 282 279 279
293 296 293 291 295 298 299 300 299 296 295 294 294 293 292 291 290 289 289 289 288 288 288 288 287 288 288 287 287 288 288 287 285 285 284 284 281 283 283 283 283 283 282 282
295 293 288 286 296 295 295 297 297 295 294 294 292 291 292 291 289 289 288 288 287 286 286 286 286 286 286 287 286 287 287 286 285 284 283 281 281 280 282 282 283 285 286 286

GFSCGP_sfc_thetae_027.txt.gz
Theta_e
298 293 289 292 294 295 294 292 291 292 296 298 297 295 301 304 307 305 306 307 308 317 320 322 324 325 323 322 322 323 319 318 319 318 316 312 311 311 309 308 307 307 306 305
294 291 296 299 298 298 297 293 292 295 295 295 292 293 300 304 307 306 306 307 308 315 316 321 322 322 320 321 322 322 320 319 319 319 317 315 312 309 306 305 305 305 304 303
291 295 300 299 297 295 294 292 292 293 291 293 292 291 299 304 303 305 306 308 309 310 311 315 320 320 319 319 320 322 321 320 319 319 317 310 307 305 303 302 302 303 304 301
294 299 298 297 296 296 291 296 295 294 289 285 289 282 290 300 302 303 304 306 308 309 312 313 317 318 319 319 321 322 322 321 320 319 317 313 310 305 302 302 301 296 297 296
294 296 295 295 296 297 293 297 295 294 290 288 289 286 288 296 298 302 304 305 307 308 311 312 314 319 320 320 321 321 322 321 321 318 316 312 307 303 303 300 294 294 295 296
295 299 298 297 300 299 298 296 294 292 289 282 289 286 286 291 297 302 306 306 307 305 309 313 316 319 320 320 320 320 320 320 320 318 314 310 303 301 299 293 293 293 293 293
293 295 298 301 296 297 296 290 283 282 281 280 291 288 290 295 298 298 300 304 308 307 309 315 318 319 319 319 320 320 318 313 315 313 308 305 303 302 299 294 293 292 292 292
288 286 296 300 296 293 293 290 283 279 278 283 291 286 291 298 301 300 300 302 303 306 311 316 319 320 319 320 319 319 313 307 305 304 302 298 298 299 297 296 294 294 294 294
288 289 299 301 302 299 295 289 293 287 285 283 285 291 294 298 298 299 300 304 304 307 311 315 318 319 318 316 312 309 306 302 301 300 298 297 297 298 297 296 296 295 295 295
294 288 296 300 300 300 296 297 287 287 281 280 283 284 286 295 297 299 299 303 305 307 311 312 313 312 312 311 308 304 302 301 300 299 299 299 298 297 296 295 295 295 295 296
296 291 290 297 294 293 293 290 290 290 285 280 278 283 291 294 297 298 297 301 305 307 310 311 312 311 310 308 306 304 301 298 297 298 296 296 295 296 295 295 295 295 295 294
297 291 284 291 297 298 295 293 291 282 283 281 280 284 294 295 297 297 299 301 302 307 309 311 311 308 306 306 306 304 302 299 298 298 297 296 295 296 295 294 295 295 294 294
297 290 282 287 292 294 292 293 294 290 285 283 279 283 294 294 294 295 298 300 303 307 307 308 307 307 306 306 305 305 302 298 295 297 296 295 295 295 295 293 293 292 292 291
299 291 288 284 288 291 288 292 293 291 282 283 282 287 292 294 294 295 295 297 301 305 306 305 304 306 307 307 305 304 301 299 299 299 296 296 295 296 296 295 292 292 291 290
297 290 289 290 291 293 292 292 292 290 289 285 288 288 293 293 294 294 294 296 300 303 303 302 302 304 305 305 304 303 300 301 299 297 296 296 298 297 296 294 292 291 291 291
296 287 289 288 291 291 289 292 292 291 291 290 290 289 293 293 293 294 295 296 297 300 302 302 302 303 303 304 303 301 301 300 298 296 296 298 298 296 293 293 292 291 292 292
292 288 285 283 286 286 283 287 290 291 292 292 287 291 293 293 294 293 294 296 297 299 301 302 301 302 302 302 303 301 300 299 297 296 298 297 295 293 291 291 291 291 291 291
289 287 283 281 282 276 290 293 293 291 290 291 291 292 294 294 294 295 295 295 296 296 296 295 294 299 301 301 301 299 296 295 295 293 293 293 292 291 292 292 291 291 292 291
296 286 282 281 280 285 289 291 291 289 288 292 292 294 295 296 295 296 297 294 292 292 291 290 290 291 292 294 295 292 291 291 291 290 291 292 292 291 291 291 291 292 291 289
292 290 286 279 278 277 287 292 295 294 284 294 294 294 295 292 285 292 295 293 290 290 290 289 289 290 290 290 291 290 289 289 288 289 291 292 293 292 291 291 291 291 290 288
283 282 281 276 277 282 290 295 294 283 285 295 295 295 293 292 292 294 291 289 289 289 289 290 290 289 289 290 290 289 289 289 291 293 294 295 294 293 292 292 291 290 287 285
286 282 278 278 276 279 294 294 287 290 294 296 295 296 296 294 292 291 290 288 289 288 289 289 289 288 289 290 290 289 291 293 295 294 294 294 293 292 292 289 286 285 284 282
285 288 285 286 285 293 295 293 295 297 296 295 296 297 298 292 290 290 288 288 288 288 287 288 288 287 289 290 291 289 290 293 292 291 290 288 288 287 286 284 284 282 282 279
291 295 289 288 292 294 294 297 298 296 297 298 298 298 295 290 289 288 288 288 288 287 286 287 287 286 286 288 288 288 288 287 286 285 285 285 284 284 284 284 283 282 279 279
292 295 291 289 293 296 297 296 294 294 294 293 292 292 291 290 288 288 288 287 287 286 287 286 286 285 285 286 286 286 286 286 284 284 284 284 281 282 282 282 282 282 283 283
294 292 288 286 296 294 295 295 295 293 292 292 291 289 290 290 288 288 287 287 286 286 286 285 284 285 284 284 284 285 286 284 283 283 282 281 281 281 282 282 283 285 286 286